Voltar ao catálogo

QIANFAN-104

AtivoComunicaçõesPO
NORAD 66046·PAYLOAD·🇨🇳 China

Lançado Oct 17, 2025 de Taiyuan Satellite Launch Center

Loading…

Próximas Passagens (próximas 24 horas)

TLE

AtualizadoSource: Space-Track

Época: Sep 14, 2026, 15:41 UTC

1 66046U 25233P   26257.65392121  .00000062  00000-0  77992-4 0  9994
2 66046  89.0058  34.0610 0001810 100.4360 259.6995 13.51025923 45311

Acompanhe QIANFAN-104 em tempo real com AllMySat

Download on the App Store